Location: Unspecified
(47.9110°N, 14.3980°E)
Time: 06:31:08
(UTC+00:00)

Cosmos 1980 Rocket - Pass Details

Date: 06 August 2020
Orbit: 829 x 849 km, 71.0° (Epoch: 23 September)

Event Time Altitude Azimuth Distance (km) Brightness Sun altitude
Rises 21:07:59 0° 329° (NNW) 3,421 7.0 -20.3°
Reaches altitude 10° 21:10:29 10° 325° (NW) 2,479 5.8 -20.5°
Maximum altitude 21:16:00 55° 249° (WSW) 1,015 2.6 -21.0°
Enters shadow 21:18:09 35° 192° (SSW) 1,340 2.8 -21.2°
